QPF
0.05 0.01 0.13 0.10 0.05 0.00 0.00 0.00 0.00 0.00 0.01 0.01 0.01 0.03 0.06 0.11 0.07 0.05 0.14 0.13 0.10 0.01 0.00 0.00 0.03 0.00 0.00 0.00 0.00 0.00 0.00 0.00 0.00 0.00 0.01 0.01 0.01 0.03 0.00 0.00 0.00 0.00 0.00
0.03 0.00 0.03 0.02 0.04 0.01 0.01 0.00 0.00 0.00 0.01 0.03 0.05 0.06 0.05 0.09 0.08 0.04 0.09 0.08 0.08 0.08 0.00 0.02 0.00 0.00 0.00 0.00 0.00 0.00 0.00 0.00 0.00 0.01 0.05 0.01 0.00 0.00 0.00 0.00 0.00 0.00 0.00
0.01 0.01 0.02 0.05 0.10 0.06 0.02 0.01 0.01 0.01 0.02 0.06 0.08 0.11 0.08 0.09 0.13 0.11 0.10 0.03 0.02 0.06 0.01 0.00 0.00 0.00 0.00 0.00 0.00 0.00 0.00 0.00 0.00 0.00 0.01 0.00 0.00 0.00 0.00 0.00 0.00 0.00 0.00
0.01 0.01 0.01 0.07 0.19 0.12 0.07 0.08 0.07 0.04 0.02 0.04 0.09 0.13 0.12 0.08 0.06 0.05 0.08 0.08 0.13 0.17 0.00 0.00 0.00 0.00 0.00 0.00 0.00 0.00 0.00 0.00 0.00 0.00 0.00 0.00 0.00 0.00 0.00 0.00 0.00 0.00 0.00
0.01 0.01 0.05 0.12 0.16 0.13 0.08 0.09 0.10 0.07 0.04 0.02 0.04 0.09 0.09 0.07 0.04 0.01 0.00 0.02 0.05 0.15 0.05 0.02 0.00 0.00 0.00 0.00 0.00 0.00 0.00 0.00 0.00 0.00 0.00 0.00 0.00 0.00 0.00 0.00 0.00 0.00 0.00
0.03 0.01 0.04 0.11 0.19 0.19 0.21 0.17 0.11 0.08 0.06 0.04 0.02 0.05 0.07 0.07 0.03 0.02 0.01 0.03 0.03 0.07 0.13 0.10 0.00 0.00 0.00 0.00 0.00 0.00 0.01 0.00 0.00 0.00 0.00 0.00 0.00 0.00 0.00 0.00 0.00 0.00 0.00
0.00 0.00 0.01 0.06 0.31 0.40 0.22 0.21 0.24 0.11 0.08 0.07 0.05 0.01 0.01 0.02 0.01 0.00 0.00 0.07 0.10 0.02 0.08 0.08 0.03 0.00 0.00 0.01 0.00 0.00 0.00 0.00 0.00 0.00 0.00 0.00 0.00 0.00 0.00 0.00 0.00 0.00 0.01
0.01 0.00 0.01 0.01 0.06 0.16 0.16 0.17 0.23 0.22 0.14 0.06 0.07 0.03 0.00 0.00 0.00 0.00 0.02 0.05 0.03 0.01 0.01 0.03 0.02 0.00 0.02 0.01 0.01 0.00 0.00 0.00 0.00 0.00 0.00 0.00 0.00 0.00 0.00 0.00 0.00 0.00 0.00
0.01 0.01 0.00 0.01 0.00 0.03 0.05 0.09 0.10 0.17 0.23 0.12 0.06 0.08 0.01 0.00 0.03 0.03 0.14 0.06 0.00 0.00 0.02 0.02 0.02 0.01 0.02 0.01 0.00 0.00 0.00 0.00 0.00 0.00 0.00 0.00 0.00 0.00 0.00 0.00 0.00 0.01 0.00
0.00 0.00 0.01 0.01 0.00 0.00 0.01 0.02 0.04 0.07 0.18 0.18 0.13 0.10 0.06 0.04 0.03 0.09 0.11 0.08 0.01 0.00 0.02 0.04 0.02 0.01 0.02 0.01 0.00 0.00 0.00 0.00 0.00 0.00 0.00 0.00 0.00 0.00 0.00 0.00 0.00 0.01 0.00
0.00 0.00 0.00 0.00 0.00 0.00 0.00 0.00 0.01 0.06 0.05 0.10 0.08 0.09 0.05 0.03 0.08 0.01 0.01 0.06 0.01 0.02 0.02 0.01 0.01 0.00 0.00 0.00 0.00 0.00 0.00 0.00 0.00 0.00 0.00 0.00 0.00 0.00 0.00 0.00 0.00 0.01 0.00
0.00 0.00 0.00 0.00 0.00 0.00 0.00 0.00 0.00 0.02 0.04 0.01 0.00 0.04 0.03 0.02 0.15 0.12 0.02 0.04 0.01 0.06 0.12 0.05 0.01 0.01 0.00 0.00 0.00 0.00 0.00 0.00 0.00 0.00 0.00 0.00 0.00 0.00 0.00 0.00 0.01 0.01 0.01
0.00 0.00 0.00 0.00 0.00 0.00 0.00 0.00 0.00 0.00 0.03 0.09 0.04 0.01 0.00 0.02 0.16 0.19 0.07 0.10 0.02 0.03 0.06 0.05 0.02 0.00 0.00 0.00 0.00 0.00 0.00 0.00 0.00 0.00 0.00 0.00 0.00 0.00 0.00 0.00 0.00 0.01 0.01
0.00 0.00 0.00 0.00 0.00 0.00 0.00 0.00 0.00 0.00 0.01 0.06 0.13 0.10 0.02 0.03 0.10 0.15 0.17 0.16 0.11 0.01 0.04 0.15 0.08 0.00 0.00 0.00 0.00 0.00 0.00 0.00 0.00 0.00 0.00 0.00 0.00 0.00 0.00 0.00 0.00 0.01 0.00
0.00 0.00 0.00 0.00 0.00 0.00 0.01 0.00 0.00 0.00 0.00 0.02 0.06 0.10 0.07 0.21 0.31 0.08 0.09 0.11 0.18 0.03 0.01 0.04 0.10 0.01 0.00 0.00 0.00 0.00 0.00 0.00 0.00 0.00 0.00 0.00 0.00 0.00 0.00 0.00 0.01 0.01 0.00
0.00 0.00 0.00 0.00 0.00 0.00 0.00 0.01 0.00 0.00 0.00 0.00 0.02 0.05 0.06 0.13 0.46 0.37 0.08 0.17 0.24 0.10 0.03 0.01 0.06 0.04 0.00 0.00 0.00 0.00 0.00 0.00 0.00 0.00 0.00 0.00 0.00 0.00 0.00 0.00 0.01 0.00 0.00
0.00 0.00 0.00 0.00 0.00 0.00 0.00 0.00 0.00 0.00 0.00 0.00 0.00 0.02 0.03 0.06 0.11 0.31 0.38 0.08 0.12 0.05 0.02 0.02 0.08 0.07 0.02 0.00 0.00 0.00 0.00 0.00 0.00 0.00 0.00 0.00 0.00 0.00 0.00 0.00 0.01 0.01 0.00
0.00 0.00 0.00 0.00 0.00 0.00 0.00 0.00 0.00 0.00 0.00 0.00 0.00 0.01 0.02 0.05 0.06 0.14 0.55 0.23 0.08 0.07 0.03 0.05 0.15 0.04 0.04 0.01 0.00 0.00 0.00 0.00 0.00 0.00 0.00 0.00 0.00 0.00 0.00 0.00 0.01 0.01 0.01
0.00 0.00 0.00 0.00 0.00 0.00 0.00 0.00 0.00 0.00 0.00 0.00 0.00 0.01 0.01 0.03 0.07 0.13 0.26 0.45 0.22 0.30 0.12 0.06 0.46 0.35 0.07 0.02 0.00 0.00 0.00 0.00 0.00 0.00 0.00 0.00 0.00 0.00 0.00 0.00 0.00 0.01 0.01
0.00 0.00 0.00 0.00 0.00 0.00 0.00 0.00 0.00 0.00 0.00 0.00 0.00 0.00 0.01 0.02 0.03 0.06 0.17 0.49 0.30 0.32 0.35 0.04 0.29 0.58 0.17 0.10 0.02 0.00 0.00 0.00 0.00 0.00 0.00 0.00 0.00 0.00 0.00 0.00 0.00 0.00 0.01
0.00 0.00 0.00 0.00 0.00 0.00 0.00 0.00 0.00 0.00 0.00 0.00 0.00 0.00 0.00 0.03 0.03 0.07 0.10 0.30 0.33 0.24 0.21 0.11 0.11 0.77 0.17 0.15 0.23 0.04 0.00 0.00 0.00 0.00 0.00 0.00 0.00 0.00 0.00 0.00 0.00 0.00 0.00
0.00 0.00 0.00 0.00 0.00 0.00 0.00 0.00 0.00 0.00 0.00 0.00 0.00 0.00 0.00 0.01 0.03 0.04 0.06 0.22 0.14 0.11 0.15 0.26 0.07 0.21 0.13 0.08 0.32 0.29 0.03 0.00 0.00 0.00 0.00 0.00 0.00 0.00 0.00 0.00 0.00 0.00 0.00
0.00 0.00 0.00 0.00 0.00 0.00 0.00 0.00 0.00 0.00 0.00 0.00 0.00 0.00 0.00 0.00 0.01 0.02 0.02 0.15 0.37 0.18 0.18 0.09 0.06 0.08 0.08 0.13 0.21 0.47 0.13 0.01 0.00 0.00 0.00 0.00 0.00 0.00 0.00 0.00 0.00 0.00 0.00
0.00 0.00 0.00 0.00 0.00 0.00 0.00 0.00 0.00 0.00 0.00 0.00 0.00 0.00 0.00 0.00 0.00 0.00 0.01 0.05 0.17 0.20 0.18 0.18 0.06 0.13 0.18 0.26 0.28 0.35 0.23 0.05 0.02 0.01 0.00 0.00 0.00 0.00 0.00 0.00 0.00 0.00 0.00
0.00 0.00 0.00 0.00 0.00 0.00 0.00 0.00 0.00 0.00 0.00 0.00 0.00 0.00 0.00 0.00 0.00 0.00 0.00 0.02 0.09 0.14 0.08 0.09 0.08 0.13 0.07 0.16 0.03 0.07 0.12 0.14 0.10 0.04 0.01 0.00 0.00 0.00 0.00 0.00 0.00 0.00 0.00
0.00 0.00 0.00 0.00 0.00 0.00 0.00 0.00 0.00 0.00 0.00 0.00 0.00 0.00 0.00 0.00 0.00 0.00 0.00 0.00 0.02 0.09 0.09 0.06 0.07 0.07 0.07 0.06 0.01 0.00 0.01 0.05 0.06 0.05 0.02 0.00 0.00 0.00 0.00 0.00 0.00 0.00 0.00
MSLP
1018.10 1017.31 1016.30 1015.08 1014.40 1013.71 1013.25 1013.59 1013.84 1013.58 1013.40 1013.20 1012.96 1012.89 1012.95 1013.21 1013.51 1013.74 1014.05 1014.20 1014.40 1014.46 1014.83 1015.28 1015.54 1015.72 1015.82 1016.05 1016.36 1016.58 1016.76 1016.99 1017.16 1017.29 1017.48 1017.82 1018.12 1018.28 1018.59 1018.95 1019.22 1019.36 1019.44
1019.15 1017.97 1016.96 1015.75 1014.68 1014.07 1013.63 1013.44 1013.87 1013.93 1013.81 1013.67 1013.46 1013.35 1013.33 1013.58 1013.81 1014.00 1014.22 1014.46 1014.58 1014.72 1014.98 1015.46 1015.79 1016.10 1016.28 1016.49 1016.79 1017.06 1017.28 1017.45 1017.59 1017.76 1018.01 1018.17 1018.44 1018.74 1019.07 1019.31 1019.57 1019.78 1019.84
1019.41 1018.69 1017.40 1016.35 1015.52 1014.59 1014.05 1013.73 1014.18 1014.12 1014.26 1014.11 1013.93 1013.95 1013.88 1013.86 1014.21 1014.21 1014.58 1014.78 1014.94 1015.16 1015.24 1015.77 1016.15 1016.47 1016.68 1016.91 1017.13 1017.43 1017.64 1017.82 1018.03 1018.20 1018.45 1018.71 1018.93 1019.18 1019.42 1019.61 1019.86 1020.13 1020.37
1019.90 1019.04 1018.01 1016.85 1016.05 1015.37 1014.86 1014.68 1014.67 1014.60 1014.53 1014.48 1014.41 1014.30 1014.13 1014.26 1014.57 1014.56 1014.84 1015.03 1015.08 1015.46 1015.61 1015.96 1016.44 1016.83 1017.07 1017.27 1017.45 1017.76 1018.03 1018.18 1018.39 1018.58 1018.86 1019.08 1019.32 1019.60 1019.79 1020.05 1020.31 1020.55 1020.75
1019.78 1019.12 1018.44 1017.36 1016.84 1016.29 1016.15 1015.38 1015.31 1014.97 1014.99 1014.83 1014.81 1014.75 1014.55 1014.66 1014.91 1015.00 1015.21 1015.40 1015.60 1015.70 1015.83 1016.30 1016.89 1017.19 1017.45 1017.64 1017.91 1018.12 1018.36 1018.57 1018.76 1018.96 1019.21 1019.48 1019.81 1020.09 1020.21 1020.44 1020.76 1021.04 1021.20
1020.05 1019.44 1018.74 1017.95 1017.51 1016.64 1016.64 1016.53 1015.98 1015.39 1015.39 1015.24 1015.09 1015.05 1014.95 1015.14 1015.18 1015.22 1015.28 1015.56 1015.93 1016.00 1016.26 1016.86 1017.26 1017.58 1017.71 1017.93 1018.25 1018.48 1018.76 1019.00 1019.18 1019.44 1019.67 1019.89 1020.18 1020.35 1020.55 1020.92 1021.18 1021.45 1021.59
1020.57 1019.97 1019.62 1018.95 1018.20 1017.42 1017.40 1016.95 1016.73 1016.33 1015.73 1015.55 1015.36 1015.08 1015.29 1015.24 1015.31 1015.28 1015.32 1015.55 1015.96 1016.37 1016.59 1017.21 1017.47 1017.71 1017.91 1018.13 1018.48 1018.76 1019.07 1019.26 1019.55 1019.79 1020.03 1020.18 1020.43 1020.66 1020.94 1021.29 1021.50 1021.74 1021.92
1020.90 1020.73 1020.32 1019.72 1019.27 1018.92 1018.36 1017.55 1017.36 1016.97 1016.47 1015.80 1015.67 1015.37 1015.47 1015.41 1015.44 1015.29 1015.42 1015.69 1016.00 1016.30 1016.95 1016.91 1017.60 1017.77 1018.13 1018.23 1018.58 1018.87 1019.14 1019.38 1019.79 1020.04 1020.26 1020.45 1020.62 1020.94 1021.25 1021.59 1021.81 1022.08 1022.38
1021.57 1021.28 1021.09 1020.73 1020.13 1019.67 1019.13 1018.73 1018.36 1017.63 1016.97 1016.21 1015.86 1015.74 1015.68 1015.58 1015.59 1015.57 1015.67 1015.84 1015.99 1016.19 1016.51 1016.97 1017.50 1017.74 1018.23 1018.41 1018.74 1019.03 1019.31 1019.58 1019.89 1020.28 1020.48 1020.71 1020.81 1021.01 1021.55 1021.84 1022.01 1022.40 1022.78
1021.84 1021.75 1021.70 1021.39 1020.73 1020.45 1019.92 1019.64 1018.77 1018.08 1017.54 1016.56 1016.19 1015.87 1015.77 1015.58 1015.65 1015.72 1015.90 1016.04 1016.04 1016.28 1016.61 1017.08 1017.42 1017.82 1018.29 1018.60 1018.79 1019.08 1019.53 1019.79 1020.19 1020.63 1020.79 1020.90 1021.01 1021.21 1021.68 1022.11 1022.34 1022.68 1023.12
1022.99 1022.33 1021.88 1021.74 1021.52 1021.14 1020.46 1019.95 1019.36 1018.68 1017.84 1017.11 1016.48 1016.26 1015.92 1015.81 1015.84 1015.91 1015.99 1016.28 1016.26 1016.31 1016.31 1016.92 1017.65 1017.79 1018.44 1018.63 1019.01 1019.26 1019.72 1020.07 1020.58 1020.89 1020.98 1021.09 1021.28 1021.50 1021.86 1022.29 1022.62 1023.04 1023.40
1024.41 1023.68 1023.15 1022.70 1022.08 1021.51 1021.01 1020.57 1020.25 1019.69 1018.96 1018.05 1017.41 1017.18 1016.71 1016.20 1016.16 1015.86 1015.96 1016.25 1016.55 1016.60 1016.63 1017.17 1017.59 1017.74 1018.45 1018.90 1019.24 1019.42 1019.73 1020.23 1020.67 1021.06 1021.14 1021.25 1021.44 1021.70 1022.09 1022.46 1022.83 1023.18 1023.63
1025.75 1024.75 1024.03 1023.47 1022.84 1022.43 1022.05 1021.67 1021.34 1020.79 1019.88 1019.09 1018.30 1017.84 1017.38 1016.53 1016.33 1016.15 1016.08 1016.21 1016.46 1016.66 1016.87 1017.01 1017.71 1018.03 1018.58 1018.99 1019.24 1019.53 1019.84 1020.27 1020.71 1021.06 1021.28 1021.43 1021.56 1021.84 1022.26 1022.60 1023.01 1023.36 1023.83
1026.34 1025.61 1024.87 1024.19 1023.56 1023.09 1022.86 1022.47 1022.03 1021.28 1020.82 1020.05 1019.38 1018.80 1018.38 1017.37 1016.34 1016.34 1016.24 1016.34 1016.39 1016.56 1016.70 1017.02 1017.52 1018.24 1018.63 1018.88 1019.03 1019.50 1019.82 1020.18 1020.64 1021.10 1021.41 1021.57 1021.71 1022.04 1022.36 1022.74 1023.19 1023.52 1023.90
1027.03 1026.29 1025.58 1024.86 1024.29 1023.68 1023.26 1022.87 1022.35 1022.00 1021.61 1020.77 1020.19 1019.61 1019.16 1018.15 1017.09 1016.16 1016.34 1016.54 1016.71 1016.66 1016.88 1016.94 1017.44 1018.22 1018.64 1018.88 1019.12 1019.47 1019.87 1020.22 1020.50 1021.07 1021.53 1021.71 1021.90 1022.15 1022.48 1022.89 1023.16 1023.59 1024.07
1027.64 1027.03 1026.30 1025.55 1025.07 1024.41 1023.80 1023.40 1022.95 1022.58 1022.04 1021.32 1020.91 1020.41 1019.56 1018.68 1017.72 1016.77 1016.16 1016.44 1016.60 1016.78 1016.84 1016.93 1017.36 1017.68 1018.65 1018.78 1019.10 1019.55 1019.92 1020.30 1020.57 1021.16 1021.52 1021.91 1022.11 1022.33 1022.63 1023.02 1023.26 1023.73 1024.17
1028.13 1027.57 1026.86 1026.13 1025.68 1025.04 1024.32 1023.82 1023.40 1022.86 1022.40 1021.88 1021.26 1020.77 1020.02 1019.00 1018.37 1017.38 1015.88 1016.07 1016.38 1016.48 1016.70 1017.02 1017.25 1017.65 1018.58 1018.91 1019.11 1019.55 1019.94 1020.28 1020.62 1021.21 1021.56 1021.95 1022.26 1022.42 1022.75 1023.09 1023.37 1023.71 1024.14
1028.63 1028.01 1027.43 1026.69 1026.26 1025.60 1024.97 1024.21 1023.74 1023.33 1022.91 1022.43 1021.67 1021.14 1020.22 1019.46 1018.93 1017.74 1016.44 1015.52 1015.85 1016.11 1016.39 1016.76 1017.14 1017.69 1018.35 1018.82 1019.08 1019.61 1020.08 1020.31 1020.69 1021.28 1021.68 1021.91 1022.34 1022.58 1022.83 1023.10 1023.48 1023.76 1024.07
1029.05 1028.44 1027.77 1027.19 1026.76 1026.14 1025.41 1024.73 1024.07 1023.49 1023.06 1022.49 1021.92 1021.45 1020.61 1019.81 1019.25 1018.10 1016.86 1015.50 1015.59 1015.68 1015.86 1016.38 1016.71 1017.10 1017.98 1018.56 1019.03 1019.68 1020.17 1020.46 1020.67 1021.23 1021.75 1021.97 1022.34 1022.64 1022.98 1023.12 1023.51 1023.79 1024.15
1029.33 1028.80 1028.14 1027.56 1027.05 1026.47 1025.75 1025.13 1024.35 1023.69 1023.44 1022.66 1022.23 1021.84 1020.86 1020.19 1019.61 1018.50 1017.44 1016.80 1015.49 1015.64 1015.19 1015.96 1016.43 1016.08 1017.30 1018.26 1019.02 1019.78 1020.19 1020.60 1020.78 1021.20 1021.58 1021.86 1022.27 1022.58 1022.91 1023.14 1023.48 1023.83 1024.16
1029.59 1029.09 1028.42 1027.80 1027.34 1026.73 1025.99 1025.37 1024.65 1024.09 1023.58 1022.91 1022.75 1022.23 1021.04 1020.53 1020.01 1019.08 1018.12 1017.48 1016.16 1015.79 1015.38 1015.86 1016.31 1015.99 1016.93 1018.12 1018.95 1020.13 1020.71 1020.94 1021.11 1021.35 1021.40 1021.79 1022.20 1022.46 1022.85 1023.09 1023.42 1023.66 1024.02
1030.15 1029.47 1028.78 1028.21 1027.69 1027.10 1026.52 1026.06 1025.51 1024.60 1023.90 1023.53 1023.02 1022.48 1021.32 1020.93 1020.51 1019.63 1018.88 1018.00 1017.50 1016.83 1015.50 1015.07 1016.21 1016.56 1017.24 1017.98 1018.60 1019.42 1020.60 1021.43 1021.38 1021.58 1021.67 1021.91 1022.14 1022.36 1022.74 1023.00 1023.26 1023.56 1023.86
1030.23 1029.69 1028.97 1028.28 1027.86 1027.34 1026.78 1026.25 1025.73 1024.97 1024.27 1023.64 1022.87 1022.18 1021.57 1021.46 1020.81 1020.13 1019.64 1018.77 1017.73 1017.31 1016.01 1015.61 1016.08 1016.35 1016.75 1017.60 1018.01 1018.33 1019.43 1019.96 1020.89 1021.47 1021.68 1021.90 1022.19 1022.36 1022.47 1022.80 1023.09 1023.27 1023.63
1030.12 1029.62 1028.95 1028.33 1027.83 1027.14 1026.88 1026.62 1026.29 1025.66 1024.93 1024.32 1023.63 1022.84 1022.09 1021.53 1021.07 1020.29 1019.62 1019.38 1018.56 1017.71 1016.86 1016.10 1015.95 1016.24 1016.52 1017.19 1018.10 1018.48 1018.59 1018.55 1019.61 1020.91 1021.38 1021.58 1021.88 1022.12 1022.26 1022.47 1022.79 1023.05 1023.28
1029.88 1029.60 1029.15 1028.49 1027.79 1027.42 1027.14 1026.86 1026.51 1026.06 1025.29 1024.64 1023.87 1023.15 1022.44 1022.25 1021.02 1020.44 1020.39 1019.83 1019.25 1018.14 1017.45 1017.07 1016.27 1016.08 1016.30 1016.63 1017.07 1017.75 1018.37 1018.54 1018.77 1019.59 1020.67 1021.25 1021.62 1021.57 1021.58 1021.83 1022.12 1022.58 1022.85
1029.57 1029.33 1028.95 1028.55 1028.00 1027.64 1027.33 1027.01 1026.65 1026.21 1025.50 1024.89 1024.13 1023.35 1022.41 1022.02 1021.34 1020.69 1020.60 1019.90 1019.71 1018.79 1017.87 1017.43 1016.90 1016.12 1016.03 1016.32 1016.77 1017.15 1017.57 1017.86 1018.31 1018.71 1019.67 1020.31 1020.62 1020.85 1020.95 1021.25 1021.64 1021.87 1022.26
Thickness
5676 5681 5689 5701 5703 5709 5715 5713 5710 5712 5715 5718 5721 5722 5722 5720 5719 5717 5715 5714 5713 5713 5710 5706 5704 5705 5707 5708 5708 5709 5710 5710 5711 5712 5712 5710 5707 5707 5704 5702 5700 5699 5698
5665 5673 5682 5692 5700 5703 5708 5712 5709 5708 5709 5711 5713 5716 5718 5716 5714 5713 5713 5711 5710 5709 5707 5703 5703 5702 5703 5704 5704 5705 5706 5707 5708 5709 5708 5707 5706 5703 5701 5699 5698 5696 5695
5662 5666 5676 5686 5690 5698 5702 5706 5702 5704 5703 5705 5707 5708 5711 5713 5709 5711 5708 5708 5706 5704 5705 5700 5698 5698 5700 5701 5701 5701 5703 5704 5704 5705 5704 5704 5702 5700 5698 5697 5696 5694 5693
5654 5662 5669 5677 5683 5685 5689 5695 5695 5697 5698 5701 5701 5703 5707 5707 5704 5707 5706 5705 5704 5700 5701 5698 5695 5694 5696 5698 5699 5699 5699 5701 5702 5702 5701 5701 5699 5696 5695 5694 5693 5691 5690
5651 5657 5662 5671 5674 5675 5675 5687 5688 5691 5691 5694 5695 5697 5702 5701 5701 5703 5702 5700 5698 5697 5697 5693 5690 5691 5692 5695 5695 5696 5697 5698 5699 5700 5699 5698 5695 5693 5692 5691 5689 5687 5687
5644 5649 5655 5662 5665 5668 5667 5670 5678 5684 5686 5686 5690 5692 5695 5694 5696 5698 5700 5698 5694 5694 5692 5687 5687 5687 5689 5691 5692 5693 5693 5694 5696 5696 5696 5695 5693 5691 5690 5688 5687 5684 5684
5634 5640 5643 5649 5655 5661 5660 5665 5668 5673 5679 5681 5683 5689 5688 5690 5692 5695 5697 5695 5692 5689 5688 5684 5682 5685 5687 5688 5688 5689 5690 5692 5692 5693 5692 5692 5691 5689 5688 5686 5684 5683 5682
5623 5627 5632 5638 5642 5646 5650 5658 5661 5665 5671 5676 5678 5682 5682 5686 5688 5693 5693 5691 5689 5687 5683 5684 5679 5681 5683 5686 5686 5686 5688 5690 5690 5690 5690 5690 5689 5687 5686 5684 5682 5681 5680
5610 5615 5618 5624 5629 5634 5637 5642 5649 5657 5662 5669 5673 5674 5676 5681 5685 5688 5687 5686 5686 5687 5685 5681 5678 5679 5678 5682 5683 5685 5687 5688 5688 5687 5688 5688 5687 5687 5684 5683 5681 5679 5677
5601 5603 5607 5612 5618 5621 5625 5628 5640 5648 5654 5663 5668 5671 5672 5678 5682 5686 5682 5681 5683 5682 5681 5676 5674 5675 5675 5678 5681 5684 5684 5685 5685 5684 5685 5686 5685 5685 5683 5681 5679 5677 5675
5585 5590 5598 5602 5605 5609 5615 5620 5628 5639 5647 5653 5662 5664 5670 5674 5676 5678 5679 5677 5680 5680 5680 5675 5667 5671 5671 5673 5677 5680 5681 5682 5682 5681 5683 5683 5683 5682 5681 5679 5677 5674 5672
5565 5571 5577 5585 5591 5598 5603 5608 5615 5624 5633 5642 5650 5655 5660 5666 5669 5674 5676 5675 5675 5676 5676 5669 5665 5670 5669 5671 5674 5677 5679 5679 5680 5680 5681 5681 5681 5680 5679 5677 5675 5673 5671
5541 5553 5560 5568 5577 5582 5588 5595 5601 5609 5621 5628 5638 5645 5650 5659 5664 5670 5672 5674 5674 5675 5674 5672 5668 5668 5667 5670 5672 5675 5677 5677 5677 5677 5678 5678 5679 5679 5677 5676 5674 5672 5669
5524 5533 5542 5550 5561 5567 5572 5580 5589 5601 5609 5616 5625 5631 5637 5648 5659 5663 5667 5670 5671 5673 5675 5673 5669 5668 5667 5670 5673 5674 5675 5675 5675 5675 5676 5676 5677 5676 5676 5674 5672 5670 5668
5507 5516 5524 5534 5542 5553 5560 5568 5578 5586 5592 5603 5612 5620 5626 5637 5651 5659 5661 5664 5664 5669 5670 5672 5668 5664 5666 5669 5670 5671 5672 5673 5674 5673 5673 5673 5674 5674 5673 5672 5672 5669 5666
5488 5496 5507 5516 5524 5535 5545 5553 5564 5570 5579 5590 5599 5608 5616 5628 5639 5648 5657 5657 5661 5663 5666 5669 5665 5663 5663 5666 5668 5668 5668 5669 5671 5669 5671 5670 5670 5671 5670 5670 5670 5668 5665
5469 5477 5487 5499 5508 5519 5530 5539 5549 5559 5567 5577 5588 5596 5606 5619 5629 5640 5655 5656 5656 5660 5661 5662 5663 5660 5659 5660 5664 5664 5663 5665 5666 5666 5667 5668 5668 5668 5668 5668 5668 5667 5664
5445 5457 5469 5480 5491 5503 5515 5524 5533 5544 5554 5564 5576 5587 5599 5610 5617 5629 5641 5656 5655 5657 5659 5661 5661 5657 5655 5656 5658 5658 5658 5660 5662 5662 5663 5665 5666 5666 5665 5665 5665 5665 5664
5418 5433 5449 5461 5474 5485 5497 5509 5520 5532 5542 5553 5564 5576 5589 5600 5609 5620 5632 5646 5651 5655 5659 5659 5660 5658 5652 5651 5651 5651 5653 5655 5657 5658 5659 5662 5662 5663 5663 5663 5663 5662 5662
5395 5408 5425 5440 5453 5468 5480 5493 5507 5519 5530 5542 5551 5562 5578 5590 5598 5611 5624 5631 5646 5653 5657 5656 5656 5660 5653 5647 5645 5643 5646 5648 5652 5653 5656 5658 5659 5660 5661 5661 5660 5660 5659
5375 5383 5401 5420 5433 5450 5463 5477 5492 5504 5514 5528 5537 5547 5567 5577 5586 5599 5612 5620 5635 5644 5648 5651 5651 5654 5646 5643 5639 5633 5634 5639 5644 5647 5651 5653 5654 5656 5657 5659 5659 5658 5657
5355 5364 5377 5395 5412 5429 5445 5458 5472 5488 5501 5511 5523 5534 5552 5563 5573 5586 5598 5609 5620 5628 5647 5650 5644 5643 5640 5638 5637 5635 5629 5630 5636 5641 5645 5647 5650 5651 5653 5655 5656 5656 5655
5338 5345 5357 5374 5390 5408 5425 5440 5455 5472 5486 5500 5513 5526 5539 5548 5560 5574 5584 5597 5612 5617 5637 5642 5639 5640 5639 5636 5636 5638 5632 5635 5636 5636 5639 5641 5644 5646 5650 5651 5652 5653 5653
5326 5330 5339 5352 5373 5392 5406 5420 5433 5450 5467 5481 5494 5510 5525 5538 5549 5563 5576 5584 5595 5606 5619 5629 5634 5634 5635 5632 5628 5631 5634 5643 5637 5632 5634 5637 5639 5642 5645 5648 5649 5651 5652
5315 5317 5324 5334 5353 5374 5390 5403 5415 5432 5450 5465 5481 5496 5511 5520 5539 5550 5557 5571 5580 5594 5603 5612 5623 5627 5630 5630 5631 5629 5628 5633 5638 5636 5630 5631 5634 5639 5643 5646 5648 5649 5651
5310 5310 5313 5320 5330 5348 5369 5387 5399 5414 5432 5449 5465 5481 5498 5511 5525 5538 5545 5559 5567 5580 5592 5601 5610 5621 5624 5624 5627 5629 5629 5632 5633 5634 5632 5631 5634 5635 5639 5641 5646 5648 5649